Weather History for Big Piney, WY

Change the Weather History Date:

Sunday, March 24, 2013

  Actual Average Record
Temperature  
Mean Temperature 12 °F 31 °F  
Max Temperature 27 °F 45 °F 63 °F (2012)
Min Temperature -3 °F 17 °F -3 °F (2013)
Degree Days  
Heating Degree Days 53 34  
Month to date heating degree days 890 941  
Since 1 July heating degree days 7754 8464  
Cooling Degree Days 0 0  
Month to date cooling degree days 0 0  
Year to date cooling degree days 0 0  
Moisture  
Dew Point 0 °F    
Average Humidity 58    
Maximum Humidity 83    
Minimum Humidity 32    
Precipitation  
Precipitation 0.00 in 0.02 in 0.15 in (2005)
Month to date precipitation 0.03 0.31  
Year to date precipitation 0.19 0.97  
Sea Level Pressure  
Sea Level Pressure 30.26 in    
Wind  
Wind Speed 7 mph (North)    
Max Wind Speed 18 mph    
Max Gust Speed 24 mph    
Visibility 10 miles    
Events      
T = Trace of Precipitation, MM = Missing Value Source: NWS Daily Summary

Daily Weather History Graph

Daily Weather History Graph

Search for Another Location

Airport:

Trip Planner

Search our weather history database for the weather conditions in past years. The results will help you decide how hot, cold, wet, or windy it might be!

Date:

Astronomy

Mar. 24, 2013 Rise Set
Actual Time 7:16 AM MDT 7:37 PM MDT
Civil Twilight 6:47 AM MDT 8:05 PM MDT
Nautical Twilight 6:14 AM MDT 8:39 PM MDT
Astronomical Twilight 5:40 AM MDT 9:13 PM MDT
Moon 5:07 PM MDT (3/24) 5:31 AM MDT (3/24)
Length of Visible Light 13h 17m
Length of Day
12h 21m
Waxing Gibbous, 92% of the Moon is Illuminated
Mar 24
Waxing Gibbous
Mar 27
Full
Apr 2
Last Quarter
Apr 10
New
Apr 18
First Quarter

Hourly Weather History & Observations

Time (MDT) Temp. Windchill Dew Point Humidity Pressure Visibility Wind Dir Wind Speed Gust Speed Precip Events Conditions
12:53 AM 5.0 °F -4.1 °F -0.9 °F 76% 30.25 in 10.0 mi ENE 4.6 mph - N/A   Mostly Cloudy
1:53 AM 1.9 °F -12.9 °F -4.0 °F 76% 30.26 in 10.0 mi NE 9.2 mph - N/A   Scattered Clouds
2:53 AM -0.9 °F -8.9 °F -6.0 °F 79% 30.27 in 10.0 mi North 3.5 mph - N/A   Partly Cloudy
3:53 AM -0.0 °F -11.6 °F -5.1 °F 79% 30.25 in 10.0 mi North 5.8 mph - N/A   Partly Cloudy
4:53 AM -0.9 °F - -6.0 °F 79% 30.25 in 10.0 mi Calm Calm - N/A   Mostly Cloudy
5:53 AM -0.0 °F - -5.1 °F 79% 30.26 in 10.0 mi Calm Calm - N/A   Overcast
6:53 AM 1.0 °F - -5.1 °F 75% 30.27 in 10.0 mi Calm Calm - N/A   Overcast
7:53 AM 1.0 °F - -4.0 °F 79% 30.31 in 10.0 mi Calm Calm - N/A   Scattered Clouds
8:53 AM 6.1 °F - 1.0 °F 80% 30.30 in 10.0 mi Calm Calm - N/A   Scattered Clouds
9:53 AM 9.0 °F - 3.0 °F 77% 30.29 in 10.0 mi Calm Calm - N/A   Clear
10:53 AM 19.0 °F 13.9 °F 6.1 °F 57% 30.26 in 10.0 mi ENE 3.5 mph - N/A   Clear
11:53 AM 23.0 °F 11.1 °F 1.9 °F 40% 30.25 in 10.0 mi North 12.7 mph - N/A   Partly Cloudy
12:53 PM 23.0 °F 10.6 °F 1.9 °F 40% 30.26 in 10.0 mi North 13.8 mph 20.7 mph N/A   Partly Cloudy
1:53 PM 24.1 °F 11.5 °F 1.9 °F 38% 30.26 in 10.0 mi NNW 15.0 mph 20.7 mph N/A   Clear
2:53 PM 25.0 °F 12.6 °F -0.0 °F 34% 30.26 in 10.0 mi NNW 15.0 mph - N/A   Clear
3:53 PM 26.1 °F 13.6 °F -0.9 °F 31% 30.25 in 10.0 mi North 16.1 mph 20.7 mph N/A   Clear
4:53 PM 26.1 °F 13.6 °F 1.9 °F 35% 30.25 in 10.0 mi NNW 16.1 mph - N/A   Clear
5:53 PM 24.8 °F 12.4 °F 1.4 °F 36% 30.07 in 10.0 mi North 15.0 mph - N/A   Clear
6:53 PM 23.0 °F 11.7 °F 3.9 °F 44% 30.27 in 10.0 mi North 11.5 mph - N/A   Clear
7:53 PM 17.1 °F 4.3 °F 5.0 °F 59% 30.30 in 10.0 mi North 11.5 mph - N/A   Clear
8:53 PM 12.0 °F -0.4 °F 3.9 °F 70% 30.31 in 10.0 mi NNW 9.2 mph - N/A   Clear
9:53 PM 9.0 °F -4.2 °F 1.9 °F 73% 30.33 in 10.0 mi NNW 9.2 mph - N/A   Clear
10:53 PM 8.1 °F -5.3 °F 1.0 °F 73% 30.29 in 10.0 mi NNW 9.2 mph - N/A   Clear
11:53 PM 8.1 °F - -0.0 °F 70% 30.28 in 10.0 mi Calm Calm - N/A   Clear